User: anonymous   Login
Location: Black Swamp Observatory
(41.3920°N, 84.1250°W)
Time: 03:38:06
(UTC-05:00)
Language:

PRISM - Orbit

View from above orbital plane
View from above orbital plane
View from above satellite
View from above satellite

Ground track
Ground track

The orbit data is extracted from the following two-line orbital elements,

1 33493U 09002B   24063.68952338  .00015402  00000-0  84673-3 0  9995
2 33493  98.2221 102.6078 0012285 245.0222 114.9732 15.14130887823050
Epoch (UTC): 03 March 2024 16:32:54
Eccentricity: 0.0012285
inclination: 98.2221°
perigee height: 515 km
apogee height: 532 km
right ascension of ascending node: 102.6078°
argument of perigee: 245.0222°
revolutions per day: 15.14130887
mean anomaly at epoch: 114.9732°
orbit number at epoch: 82305

The dashed part of the orbit path shows where the satellite is in the earth's shadow,  

DLR